Tracking 28238 objects as of 28-Nov-2023
HD Live streaming from Space Station
objects crossing your sky now

STARLINK-5482

Track STARLINK-5482 now!
10-day predictions
STARLINK-5482 is classified as:


NORAD ID: 56358
Int'l Code: 2023-058AT
Perigee: 567.6 km
Apogee: 572.6 km
Inclination: 97.7 °
Period: 95.9 minutes
Semi major axis: 6941 km
RCS: Unknown
Launch date: April 27, 2023
Source: United States (US)
Launch site: AIR FORCE WESTERN TEST RANGE (AFWTR)
Your satellite tracking list
Your tracking list is empty




NASA's NSSDC Master Catalog

Two Line Element Set (TLE):
1 56358U 23058AT  23331.93529428  .00002008  00000-0  16080-3 0  9997
2 56358  97.6542 330.7210 0003645  33.9579 326.1878 15.01272957 33192
Source of the keplerian elements: AFSPC